Location: Newark
(30.0333°N, 31.2167°E)
Time: 05:16:40
(UTC+00:00)

Tiros 1 despin weight - Pass Details

Date: 23 January 2020
Orbit: 594 x 642 km, 48.2° (Epoch: 19 February)

Event Time Altitude Azimuth Distance (km) Brightness Sun altitude
Rises 10:49:17 0° 278° (W) 2,866 ? 39.4°
Reaches altitude 10° 10:52:30 10° 302° (WNW) 1,974 ? 39.3°
Maximum altitude 10:55:06 15° 337° (NNW) 1,681 ? 39.1°
Drops below altitude 10° 10:57:45 10° 13° (NNE) 1,995 ? 39.0°
Sets 11:01:02 0° 36° (NE) 2,914 ? 38.8°
